Regional Weather Roundup
Issued by NWS Charleston, WV

Home | Current Version | Previous Version | Text Only | Print | Product List | Glossary On
Versions: 1 2 3 4 5 6 7 8 9 10 11 12 13 14 15 16 17 18 19 20 21 22 23 24 25 26 27 28
000
ASUS41 KRLX 181410
RWRRLX
West Virginia Regional Weather Roundup
National Weather Service Charleston WV
1000 AM EDT FRI APR 18 2014

Note: "fair" indicates few or no clouds below 12,000 feet with no
significant weather and/or obstructions to visibility.

WVZ003-181500-
Northern Panhandle of West Virginia

CITY           SKY/WX    TMP DP  RH WIND       PRES   REMARKS
WHEELING       CLOUDY    51  27  39 S8        30.31S
$$

WVZ009-181500-
Northwest West Virginia

CITY           SKY/WX    TMP DP  RH WIND       PRES   REMARKS
PARKERSBURG    CLOUDY    52  30  43 CALM      30.34F
$$

WVZ006-181500-
Western West Virginia

CITY           SKY/WX    TMP DP  RH WIND       PRES   REMARKS
HUNTINGTON     CLOUDY    55  26  32 SW7       30.32R
$$

WVZ015-181500-
West Central West Virginia

CITY           SKY/WX    TMP DP  RH WIND       PRES   REMARKS
CHARLESTON     CLOUDY    59  28  30 VRB5      30.32S
$$

WVZ031-181500-
North Central West Virginia

CITY           SKY/WX    TMP DP  RH WIND       PRES   REMARKS
CLARKSBURG     CLOUDY    53  25  33 SE5       30.34S
MORGANTOWN     CLOUDY    56  26  31 SE5       30.35R
$$

WVZ035-042-045-181500-
South Central West Virginia

CITY           SKY/WX    TMP DP  RH WIND       PRES   REMARKS
BECKLEY        PTSUNNY   52  26  36 S5        30.35F
BLUEFIELD      PTSUNNY   51  27  39 SE5       30.36S
LEWISBURG      PTSUNNY   43  31  63 CALM      30.37F
$$

WVZ047-181500-
Northern Mountains of West Virginia

CITY           SKY/WX    TMP DP  RH WIND       PRES   REMARKS
ELKINS         PTSUNNY   49  29  46 CALM      30.36F
$$

WVZ052-181500-
Eastern Panhandle of West Virginia

CITY           SKY/WX    TMP DP  RH WIND       PRES   REMARKS
MARTINSBURG    CLOUDY    41  31  67 VRB3      30.48R
PETERSBURG     PTSUNNY   46  38  73 CALM      30.44F
$$



USA.gov is the U.S. government's official web portal to all federal, state and local government web resources and services.